Simultaneous Nadir Overpasses (SNOs) Predictions

Prediction of SNOs between METOP-A and NOAA-19 Satellite Orbit:

Table of predicted SNOs for the next 14.0 days since TLE Epoch: 5/17/2019
Index Date (METOP-A) Time (METOP-A) Lat,Lon (METOP-A) SZA (METOP-A ) Date (NOAA-19) Time (NOAA-19) Lat,Lon (NOAA-19) SZA (NOAA-19 ) Distance(km) Time Diff (sec)
1 05/25/2019 02:58:58 79.85, 148.80 59.26 05/25/2019 02:57:52 79.83, 145.15 59.07 71.55 66
2 05/25/2019 03:49:45 -79.67, -45.45 121.00 05/25/2019 03:48:45 -79.64, -45.52 121.04 3.40 60
3 05/25/2019 04:40:26 79.64, 121.61 58.95 05/25/2019 04:39:46 79.65, 121.69 58.96 1.86 40
4 05/25/2019 05:31:07 -79.65, -70.95 121.04 05/25/2019 05:30:46 -79.65, -71.06 121.05 2.20 21
5 05/25/2019 06:21:47 79.65, 96.39 58.96 05/25/2019 06:21:46 79.62, 96.44 58.93 3.42 1
6 05/25/2019 07:12:29 -79.63, -96.45 121.08 05/25/2019 07:12:46 -79.62, -96.31 121.08 3.08 17
7 05/25/2019 08:03:09 79.63, 70.88 58.92 05/25/2019 08:03:47 79.63, 70.89 58.92 0.65 38
8 05/25/2019 08:53:51 -79.61,-121.95 121.12 05/25/2019 08:54:47 -79.62,-121.85 121.09 2.57 56




NCC Satellite Simultaneous Nadir Overpasses (SNOs) Prediction Service
